owner,sensor,date,latitude,longitude,vertical_datum,sea_water_temperature,qcFlag
Shell,ioos:station:wmo:42873:1,2023-01-01T00:02:00Z,26.0940,-94.9031,7.4,25.3,11111222
Shell,ioos:station:wmo:42873:1,2023-01-01T00:12:00Z,26.0940,-94.9031,7.3,25.3,11111222
Shell,ioos:station:wmo:42873:1,2023-01-01T00:22:00Z,26.0941,-94.9031,7.3,25.2,11111222
Shell,ioos:station:wmo:42873:1,2023-01-01T00:32:00Z,26.0941,-94.9031,7.2,25.2,11111222
Shell,ioos:station:wmo:42873:1,2023-01-01T00:42:00Z,26.0941,-94.9031,7.2,25.2,11111222
Shell,ioos:station:wmo:42873:1,2023-01-01T00:52:00Z,26.0942,-94.9034,7.2,25.3,11111222
Shell,ioos:station:wmo:42873:1,2023-01-01T01:02:00Z,26.0942,-94.9030,7.2,25.2,11111222
Shell,ioos:station:wmo:42873:1,2023-01-01T01:12:00Z,26.0940,-94.9028,7.3,25.2,11111222
Shell,ioos:station:wmo:42873:1,2023-01-01T01:22:00Z,26.0940,-94.9029,7.3,25.2,11111222
Shell,ioos:station:wmo:42873:1,2023-01-01T01:32:00Z,26.0940,-94.9029,7.2,25.3,11111222
Shell,ioos:station:wmo:42873:1,2023-01-01T01:42:00Z,26.0940,-94.9026,7.2,25.3,11111222
Shell,ioos:station:wmo:42873:1,2023-01-01T01:52:00Z,26.0940,-94.9029,7.2,25.3,11111222
Shell,ioos:station:wmo:42873:1,2023-01-01T02:02:00Z,26.0939,-94.9043,7.2,25.3,11111222
Shell,ioos:station:wmo:42873:1,2023-01-01T02:12:00Z,26.0940,-94.9030,7.1,25.3,11111222
Shell,ioos:station:wmo:42873:1,2023-01-01T02:22:00Z,26.0938,-94.9036,7.1,25.3,11111222
Shell,ioos:station:wmo:42873:1,2023-01-01T02:32:00Z,26.0939,-94.9030,7.1,25.3,11111222
Shell,ioos:station:wmo:42873:1,2023-01-01T02:42:00Z,26.0940,-94.9030,7.1,25.2,11111222
Shell,ioos:station:wmo:42873:1,2023-01-01T02:52:00Z,26.0940,-94.9030,7.1,25.2,11111222
Shell,ioos:station:wmo:42873:1,2023-01-01T03:02:00Z,26.0940,-94.9031,7.1,25.2,11111222
Shell,ioos:station:wmo:42873:1,2023-01-01T03:12:00Z,26.0940,-94.9031,7.2,25.2,11111222
Shell,ioos:station:wmo:42873:1,2023-01-01T03:22:00Z,26.0940,-94.9031,7.2,25.2,11111222
Shell,ioos:station:wmo:42873:1,2023-01-01T03:32:00Z,26.0939,-94.9031,7.1,25.2,11111222
Shell,ioos:station:wmo:42873:1,2023-01-01T03:42:00Z,26.0940,-94.9030,7.1,25.3,11111222
Shell,ioos:station:wmo:42873:1,2023-01-01T03:52:00Z,26.0940,-94.9030,7.2,25.3,11111222
Shell,ioos:station:wmo:42873:1,2023-01-01T04:02:00Z,26.0940,-94.9030,7.2,25.3,11111222
Shell,ioos:station:wmo:42873:1,2023-01-01T04:12:00Z,26.0940,-94.9029,7.2,25.3,11111222
Shell,ioos:station:wmo:42873:1,2023-01-01T04:22:00Z,26.0940,-94.9030,7.2,25.3,11111222
Shell,ioos:station:wmo:42873:1,2023-01-01T04:32:00Z,26.0939,-94.9031,7.2,25.3,11111222
Shell,ioos:station:wmo:42873:1,2023-01-01T04:42:00Z,26.0940,-94.9031,7.2,25.2,11111222
Shell,ioos:station:wmo:42873:1,2023-01-01T04:52:00Z,26.0940,-94.9033,7.2,25.2,11111222
Shell,ioos:station:wmo:42873:1,2023-01-01T05:02:00Z,26.0940,-94.9030,7.2,25.2,11111222
Shell,ioos:station:wmo:42873:1,2023-01-01T05:12:00Z,26.0940,-94.9033,7.2,25.2,11111222
Shell,ioos:station:wmo:42873:1,2023-01-01T05:22:00Z,26.0940,-94.9029,7.2,25.2,11111222
Shell,ioos:station:wmo:42873:1,2023-01-01T05:32:00Z,26.0939,-94.9033,7.2,25.2,11111222
Shell,ioos:station:wmo:42873:1,2023-01-01T05:42:00Z,26.0941,-94.9030,7.2,25.2,11111222
Shell,ioos:station:wmo:42873:1,2023-01-01T05:52:00Z,26.0941,-94.9030,7.2,25.2,11111222
Shell,ioos:station:wmo:42873:1,2023-01-01T06:03:00Z,26.0940,-94.9030,7.1,25.2,11111222
Shell,ioos:station:wmo:42873:1,2023-01-01T06:13:00Z,26.0940,-94.9030,7.2,25.2,11111222
Shell,ioos:station:wmo:42873:1,2023-01-01T06:23:00Z,26.0940,-94.9030,7.2,25.2,11111222
Shell,ioos:station:wmo:42873:1,2023-01-01T06:33:00Z,26.0941,-94.9031,7.2,25.2,11111222
Shell,ioos:station:wmo:42873:1,2023-01-01T06:43:00Z,26.0940,-94.9030,7.2,25.2,11111222
Shell,ioos:station:wmo:42873:1,2023-01-01T06:53:00Z,26.0939,-94.9030,7.2,25.2,11111222
Shell,ioos:station:wmo:42873:1,2023-01-01T07:03:00Z,26.0939,-94.9033,7.1,25.2,11111222
Shell,ioos:station:wmo:42873:1,2023-01-01T07:13:00Z,26.0940,-94.9032,7.1,25.2,11111222
Shell,ioos:station:wmo:42873:1,2023-01-01T07:23:00Z,26.0940,-94.9031,7.1,25.2,11111222
Shell,ioos:station:wmo:42873:1,2023-01-01T07:33:00Z,26.0940,-94.9030,7.1,25.2,11111222
Shell,ioos:station:wmo:42873:1,2023-01-01T07:43:00Z,26.0941,-94.9029,7.1,25.2,11111222
Shell,ioos:station:wmo:42873:1,2023-01-01T07:53:00Z,26.0940,-94.9031,7.0,25.2,11111222
Shell,ioos:station:wmo:42873:1,2023-01-01T08:03:00Z,26.0940,-94.9030,7.1,25.2,11111222
Shell,ioos:station:wmo:42873:1,2023-01-01T08:13:00Z,26.0939,-94.9032,7.1,25.2,11111222
Shell,ioos:station:wmo:42873:1,2023-01-01T08:23:00Z,26.0940,-94.9032,7.2,25.3,11111222
Shell,ioos:station:wmo:42873:1,2023-01-01T08:33:00Z,26.0940,-94.9028,7.1,25.2,11111222
Shell,ioos:station:wmo:42873:1,2023-01-01T08:43:00Z,26.0940,-94.9030,7.2,25.2,11111222
Shell,ioos:station:wmo:42873:1,2023-01-01T08:53:00Z,26.0940,-94.9031,7.2,25.2,11111222
Shell,ioos:station:wmo:42873:1,2023-01-01T09:03:00Z,26.0940,-94.9030,7.2,25.2,11111222
Shell,ioos:station:wmo:42873:1,2023-01-01T09:13:00Z,26.0939,-94.9032,7.1,25.3,11111222
Shell,ioos:station:wmo:42873:1,2023-01-01T09:23:00Z,26.0939,-94.9034,7.0,25.3,11111222
Shell,ioos:station:wmo:42873:1,2023-01-01T09:33:00Z,26.0939,-94.9031,7.0,25.3,11111222
Shell,ioos:station:wmo:42873:1,2023-01-01T09:43:00Z,26.0943,-94.9028,7.0,25.3,11111222
Shell,ioos:station:wmo:42873:1,2023-01-01T09:53:00Z,26.0941,-94.9029,7.1,25.3,11111222
Shell,ioos:station:wmo:42873:1,2023-01-01T10:03:00Z,26.0940,-94.9031,7.0,25.3,11111222
Shell,ioos:station:wmo:42873:1,2023-01-01T10:13:00Z,26.0940,-94.9031,7.2,25.3,11111222
Shell,ioos:station:wmo:42873:1,2023-01-01T10:23:00Z,26.0940,-94.9031,7.3,25.3,11111222
Shell,ioos:station:wmo:42873:1,2023-01-01T10:33:00Z,26.0940,-94.9031,7.2,25.3,11111222
Shell,ioos:station:wmo:42873:1,2023-01-01T10:43:00Z,26.0940,-94.9031,7.3,25.3,11111222
Shell,ioos:station:wmo:42873:1,2023-01-01T10:53:00Z,26.0940,-94.9030,7.3,25.3,11111222
Shell,ioos:station:wmo:42873:1,2023-01-01T11:03:00Z,26.0940,-94.9029,7.3,25.3,11111222
Shell,ioos:station:wmo:42873:1,2023-01-01T11:13:00Z,26.0940,-94.9030,7.1,25.3,11111222
Shell,ioos:station:wmo:42873:1,2023-01-01T11:23:00Z,26.0939,-94.9027,7.1,25.3,11111222
Shell,ioos:station:wmo:42873:1,2023-01-01T11:33:00Z,26.0940,-94.9028,7.0,25.3,11111222
Shell,ioos:station:wmo:42873:1,2023-01-01T11:43:00Z,26.0941,-94.9031,7.1,25.3,11111222
Shell,ioos:station:wmo:42873:1,2023-01-01T11:53:00Z,26.0939,-94.9033,7.1,25.3,11111222
Shell,ioos:station:wmo:42873:1,2023-01-01T12:03:00Z,26.0941,-94.9034,7.1,25.3,11111222
Shell,ioos:station:wmo:42873:1,2023-01-01T12:13:00Z,26.0940,-94.9032,7.1,25.3,11111222
Shell,ioos:station:wmo:42873:1,2023-01-01T12:23:00Z,26.0940,-94.9031,7.1,25.3,11111222
Shell,ioos:station:wmo:42873:1,2023-01-01T12:33:00Z,26.0940,-94.9030,7.1,25.3,11111222
Shell,ioos:station:wmo:42873:1,2023-01-01T12:43:00Z,26.0940,-94.9031,7.2,25.3,11111222
Shell,ioos:station:wmo:42873:1,2023-01-01T12:53:00Z,26.0940,-94.9031,7.2,25.3,11111222
Shell,ioos:station:wmo:42873:1,2023-01-01T13:03:00Z,26.0940,-94.9030,7.3,25.3,11111222
Shell,ioos:station:wmo:42873:1,2023-01-01T13:13:00Z,26.0940,-94.9030,7.3,25.3,11111222
Shell,ioos:station:wmo:42873:1,2023-01-01T13:24:00Z,26.0940,-94.9029,7.2,25.3,11111222
Shell,ioos:station:wmo:42873:1,2023-01-01T13:34:00Z,26.0940,-94.9030,7.1,25.3,11111222
Shell,ioos:station:wmo:42873:1,2023-01-01T13:44:00Z,26.0940,-94.9031,7.1,25.3,11111222
Shell,ioos:station:wmo:42873:1,2023-01-01T13:54:00Z,26.0939,-94.9031,7.1,25.3,11111222
Shell,ioos:station:wmo:42873:1,2023-01-01T14:04:00Z,26.0939,-94.9031,7.1,25.3,11111222
Shell,ioos:station:wmo:42873:1,2023-01-01T14:14:00Z,26.0939,-94.9029,7.0,25.3,11111222
Shell,ioos:station:wmo:42873:1,2023-01-01T14:24:00Z,26.0941,-94.9030,7.0,25.3,11111222
Shell,ioos:station:wmo:42873:1,2023-01-01T14:34:00Z,26.0940,-94.9031,7.0,25.3,11111222
Shell,ioos:station:wmo:42873:1,2023-01-01T14:44:00Z,26.0944,-94.9028,7.0,25.3,11111222
Shell,ioos:station:wmo:42873:1,2023-01-01T14:54:00Z,26.0942,-94.9031,7.0,25.3,11111222
Shell,ioos:station:wmo:42873:1,2023-01-01T15:04:00Z,26.0939,-94.9029,7.0,25.3,11111222
Shell,ioos:station:wmo:42873:1,2023-01-01T15:14:00Z,26.0940,-94.9034,7.0,25.3,11111222
Shell,ioos:station:wmo:42873:1,2023-01-01T15:24:00Z,26.0940,-94.9033,7.0,25.3,11111222
Shell,ioos:station:wmo:42873:1,2023-01-01T15:34:00Z,26.0940,-94.9030,7.0,25.3,11111222
Shell,ioos:station:wmo:42873:1,2023-01-01T15:44:00Z,26.0940,-94.9031,7.1,25.4,11111222
Shell,ioos:station:wmo:42873:1,2023-01-01T15:54:00Z,26.0940,-94.9030,7.1,25.4,11111222
Shell,ioos:station:wmo:42873:1,2023-01-01T16:04:00Z,26.0939,-94.9031,7.1,25.4,11111222
Shell,ioos:station:wmo:42873:1,2023-01-01T16:14:00Z,26.0940,-94.9031,7.1,25.4,11111222
Shell,ioos:station:wmo:42873:1,2023-01-01T16:24:00Z,26.0940,-94.9032,7.1,25.4,11111222
Shell,ioos:station:wmo:42873:1,2023-01-01T16:34:00Z,26.0941,-94.9033,7.1,25.4,11111222
Shell,ioos:station:wmo:42873:1,2023-01-01T16:44:00Z,26.0940,-94.9029,7.0,25.4,11111222
Shell,ioos:station:wmo:42873:1,2023-01-01T16:54:00Z,26.0941,-94.9025,7.0,25.4,11111222
Shell,ioos:station:wmo:42873:1,2023-01-01T17:04:00Z,26.0940,-94.9029,7.0,25.4,11111222
Shell,ioos:station:wmo:42873:1,2023-01-01T17:14:00Z,26.0940,-94.9029,7.0,25.4,11111222
Shell,ioos:station:wmo:42873:1,2023-01-01T17:24:00Z,26.0940,-94.9031,7.0,25.4,11111222
Shell,ioos:station:wmo:42873:1,2023-01-01T17:34:00Z,26.0940,-94.9031,7.0,25.4,11111222
Shell,ioos:station:wmo:42873:1,2023-01-01T17:44:00Z,26.0941,-94.9036,7.0,25.4,11111222
Shell,ioos:station:wmo:42873:1,2023-01-01T17:54:00Z,26.0940,-94.9035,7.1,25.4,11111222
Shell,ioos:station:wmo:42873:1,2023-01-01T18:04:00Z,26.0940,-94.9030,7.1,25.4,11111222
Shell,ioos:station:wmo:42873:1,2023-01-01T18:14:00Z,26.0940,-94.9032,7.1,25.4,11111222
Shell,ioos:station:wmo:42873:1,2023-01-01T18:24:00Z,26.0941,-94.9032,7.1,25.4,11111222
Shell,ioos:station:wmo:42873:1,2023-01-01T18:34:00Z,26.0940,-94.9031,7.1,25.3,11111222
Shell,ioos:station:wmo:42873:1,2023-01-01T18:44:00Z,26.0940,-94.9029,7.1,25.3,11111222
Shell,ioos:station:wmo:42873:1,2023-01-01T18:54:00Z,26.0940,-94.9044,7.1,25.3,11111222
Shell,ioos:station:wmo:42873:1,2023-01-01T19:04:00Z,26.0942,-94.9019,7.1,25.3,11111222
Shell,ioos:station:wmo:42873:1,2023-01-01T19:14:00Z,26.0942,-94.9019,7.0,25.3,11111222
Shell,ioos:station:wmo:42873:1,2023-01-01T19:24:00Z,26.0939,-94.9035,6.9,25.3,11111222
Shell,ioos:station:wmo:42873:1,2023-01-01T19:34:00Z,26.0939,-94.9034,7.0,25.3,11111222
Shell,ioos:station:wmo:42873:1,2023-01-01T19:44:00Z,26.0940,-94.9032,7.0,25.3,11111222
Shell,ioos:station:wmo:42873:1,2023-01-01T19:54:00Z,26.0940,-94.9031,7.0,25.3,11111222
Shell,ioos:station:wmo:42873:1,2023-01-01T20:04:00Z,26.0940,-94.9030,7.0,25.3,11111222
Shell,ioos:station:wmo:42873:1,2023-01-01T20:14:00Z,26.0939,-94.9033,7.0,25.3,11111222
Shell,ioos:station:wmo:42873:1,2023-01-01T20:24:00Z,26.0940,-94.9031,7.0,25.4,11111222
Shell,ioos:station:wmo:42873:1,2023-01-01T20:34:00Z,26.0938,-94.9032,7.1,25.3,11111222
Shell,ioos:station:wmo:42873:1,2023-01-01T20:44:00Z,26.0940,-94.9029,7.1,25.3,11111222
Shell,ioos:station:wmo:42873:1,2023-01-01T20:55:00Z,26.0942,-94.9037,7.1,25.3,11111222
Shell,ioos:station:wmo:42873:1,2023-01-01T21:05:00Z,26.0931,-94.8996,7.2,25.3,11111222
Shell,ioos:station:wmo:42873:1,2023-01-01T21:15:00Z,26.0945,-94.9049,7.2,25.3,11111222
Shell,ioos:station:wmo:42873:1,2023-01-01T21:25:00Z,26.0941,-94.9029,7.1,25.3,11111222
Shell,ioos:station:wmo:42873:1,2023-01-01T21:35:00Z,26.0941,-94.9030,7.0,25.2,11111222
Shell,ioos:station:wmo:42873:1,2023-01-01T21:45:00Z,26.0941,-94.9029,7.0,25.2,11111222
Shell,ioos:station:wmo:42873:1,2023-01-01T21:55:00Z,26.0941,-94.9028,6.8,25.3,11111222
Shell,ioos:station:wmo:42873:1,2023-01-01T22:05:00Z,26.0944,-94.9026,6.9,25.3,11111222
Shell,ioos:station:wmo:42873:1,2023-01-01T22:15:00Z,26.0940,-94.9033,6.9,25.3,11111222
Shell,ioos:station:wmo:42873:1,2023-01-01T22:25:00Z,26.0941,-94.9031,6.9,25.3,11111222
Shell,ioos:station:wmo:42873:1,2023-01-01T22:35:00Z,26.0940,-94.9039,6.9,25.3,11111222
Shell,ioos:station:wmo:42873:1,2023-01-01T22:45:00Z,26.0941,-94.9031,6.9,25.3,11111222
Shell,ioos:station:wmo:42873:1,2023-01-01T22:55:00Z,26.0942,-94.9028,6.9,25.2,11111222
Shell,ioos:station:wmo:42873:1,2023-01-01T23:05:00Z,26.0940,-94.9030,6.9,25.2,11111222
Shell,ioos:station:wmo:42873:1,2023-01-01T23:15:00Z,26.0941,-94.9031,6.9,25.3,11111222
Shell,ioos:station:wmo:42873:1,2023-01-01T23:25:00Z,26.0941,-94.9028,7.0,25.3,11111222
Shell,ioos:station:wmo:42873:1,2023-01-01T23:35:00Z,26.0941,-94.9032,7.0,25.3,11111222
Shell,ioos:station:wmo:42873:1,2023-01-01T23:45:00Z,26.0941,-94.9030,7.1,25.3,11111222
Shell,ioos:station:wmo:42873:1,2023-01-01T23:55:00Z,26.0941,-94.9031,7.1,25.3,11111222
Shell,ioos:station:wmo:42873:1,2023-01-02T00:05:00Z,26.0941,-94.9032,7.1,25.3,11111222
Shell,ioos:station:wmo:42873:1,2023-01-02T00:15:00Z,26.0941,-94.9031,7.1,25.3,11111222
Shell,ioos:station:wmo:42873:1,2023-01-02T00:25:00Z,26.0942,-94.9032,7.1,25.3,11111222
Shell,ioos:station:wmo:42873:1,2023-01-02T00:35:00Z,26.0940,-94.9032,6.9,25.3,11111222
Shell,ioos:station:wmo:42873:1,2023-01-02T00:45:00Z,26.0941,-94.9033,6.8,25.3,11111222
Shell,ioos:station:wmo:42873:1,2023-01-02T00:55:00Z,26.0943,-94.9030,7.0,25.3,11111222
Shell,ioos:station:wmo:42873:1,2023-01-02T01:05:00Z,26.0941,-94.9029,7.4,25.3,11111222
Shell,ioos:station:wmo:42873:1,2023-01-02T01:15:00Z,26.0941,-94.9028,7.1,25.3,11111222
Shell,ioos:station:wmo:42873:1,2023-01-02T01:25:00Z,26.0940,-94.9026,7.0,25.2,11111222
Shell,ioos:station:wmo:42873:1,2023-01-02T01:35:00Z,26.0941,-94.9027,7.0,25.2,11111222
Shell,ioos:station:wmo:42873:1,2023-01-02T01:45:00Z,26.0940,-94.9037,7.0,25.2,11111222
Shell,ioos:station:wmo:42873:1,2023-01-02T01:55:00Z,26.0940,-94.9052,7.1,25.2,11111222
Shell,ioos:station:wmo:42873:1,2023-01-02T02:05:00Z,26.0940,-94.9031,7.1,25.2,11111222
Shell,ioos:station:wmo:42873:1,2023-01-02T02:15:00Z,26.0939,-94.9029,7.1,25.2,11111222
Shell,ioos:station:wmo:42873:1,2023-01-02T02:25:00Z,26.0941,-94.9031,7.2,25.2,11111222
Shell,ioos:station:wmo:42873:1,2023-01-02T02:35:00Z,26.0941,-94.9029,7.2,25.2,11111222
Shell,ioos:station:wmo:42873:1,2023-01-02T02:45:00Z,26.0941,-94.9030,7.2,25.2,11111222
Shell,ioos:station:wmo:42873:1,2023-01-02T02:55:00Z,26.0942,-94.9030,7.2,25.3,11111222
Shell,ioos:station:wmo:42873:1,2023-01-02T03:05:00Z,26.0941,-94.9030,7.2,25.3,11111222
Shell,ioos:station:wmo:42873:1,2023-01-02T03:15:00Z,26.0938,-94.9029,7.2,25.3,11111222
Shell,ioos:station:wmo:42873:1,2023-01-02T03:25:00Z,26.0944,-94.9032,7.2,25.3,11111222
Shell,ioos:station:wmo:42873:1,2023-01-02T03:35:00Z,26.0938,-94.9027,7.2,25.3,11111222
Shell,ioos:station:wmo:42873:1,2023-01-02T03:45:00Z,26.0940,-94.9027,7.1,25.3,11111222
Shell,ioos:station:wmo:42873:1,2023-01-02T03:55:00Z,26.0943,-94.9038,7.2,25.3,11111222
Shell,ioos:station:wmo:42873:1,2023-01-02T04:05:00Z,26.0941,-94.9033,7.2,25.3,11111222
Shell,ioos:station:wmo:42873:1,2023-01-02T04:16:00Z,26.0941,-94.9030,7.2,25.3,11111222
Shell,ioos:station:wmo:42873:1,2023-01-02T04:26:00Z,26.0941,-94.9028,7.2,25.3,11111222
Shell,ioos:station:wmo:42873:1,2023-01-02T04:36:00Z,26.0942,-94.9031,7.2,25.3,11111222
Shell,ioos:station:wmo:42873:1,2023-01-02T04:46:00Z,26.0942,-94.9029,7.2,25.3,11111222
Shell,ioos:station:wmo:42873:1,2023-01-02T04:56:00Z,26.0941,-94.9031,7.2,25.3,11111222
Shell,ioos:station:wmo:42873:1,2023-01-02T05:06:00Z,26.0941,-94.9029,7.2,25.3,11111222
Shell,ioos:station:wmo:42873:1,2023-01-02T05:16:00Z,26.0941,-94.9029,7.2,25.3,11111222
Shell,ioos:station:wmo:42873:1,2023-01-02T05:26:00Z,26.0942,-94.9029,7.2,25.3,11111222
Shell,ioos:station:wmo:42873:1,2023-01-02T05:36:00Z,26.0941,-94.9031,7.2,25.2,11111222
Shell,ioos:station:wmo:42873:1,2023-01-02T05:46:00Z,26.0941,-94.9030,7.2,25.2,11111222
Shell,ioos:station:wmo:42873:1,2023-01-02T05:56:00Z,26.0942,-94.9029,7.2,25.2,11111222
Shell,ioos:station:wmo:42873:1,2023-01-02T06:06:00Z,26.0941,-94.9030,7.1,25.2,11111222
Shell,ioos:station:wmo:42873:1,2023-01-02T06:16:00Z,26.0940,-94.9028,7.2,25.2,11111222
Shell,ioos:station:wmo:42873:1,2023-01-02T06:26:00Z,26.0941,-94.9030,7.2,25.2,11111222
Shell,ioos:station:wmo:42873:1,2023-01-02T06:36:00Z,26.0939,-94.9024,7.2,25.2,11111222
Shell,ioos:station:wmo:42873:1,2023-01-02T06:46:00Z,26.0937,-94.9019,7.2,25.2,11111222
Shell,ioos:station:wmo:42873:1,2023-01-02T06:56:00Z,26.0936,-94.9017,7.1,25.2,11111222
Shell,ioos:station:wmo:42873:1,2023-01-02T07:06:00Z,26.0934,-94.9009,7.1,25.2,11111222
Shell,ioos:station:wmo:42873:1,2023-01-02T07:16:00Z,26.0931,-94.9003,7.1,25.2,11111222
Shell,ioos:station:wmo:42873:1,2023-01-02T07:26:00Z,26.0930,-94.9003,7.1,25.2,11111222
Shell,ioos:station:wmo:42873:1,2023-01-02T07:36:00Z,26.0930,-94.9003,7.0,25.2,11111222
Shell,ioos:station:wmo:42873:1,2023-01-02T07:46:00Z,26.0931,-94.9003,7.1,25.2,11111222
Shell,ioos:station:wmo:42873:1,2023-01-02T07:56:00Z,26.0930,-94.9004,7.0,25.2,11111222
Shell,ioos:station:wmo:42873:1,2023-01-02T08:06:00Z,26.0930,-94.9003,7.0,25.2,11111222
Shell,ioos:station:wmo:42873:1,2023-01-02T08:16:00Z,26.0931,-94.9000,7.1,25.2,11111222
Shell,ioos:station:wmo:42873:1,2023-01-02T08:26:00Z,26.0931,-94.9002,7.1,25.2,11111222
Shell,ioos:station:wmo:42873:1,2023-01-02T08:36:00Z,26.0930,-94.9004,7.1,25.2,11111222
Shell,ioos:station:wmo:42873:1,2023-01-02T08:46:00Z,26.0929,-94.9006,7.0,25.2,11111222
Shell,ioos:station:wmo:42873:1,2023-01-02T08:56:00Z,26.0930,-94.9004,7.1,25.2,11111222
Shell,ioos:station:wmo:42873:1,2023-01-02T09:06:00Z,26.0930,-94.9004,7.0,25.2,11111222
Shell,ioos:station:wmo:42873:1,2023-01-02T09:16:00Z,26.0930,-94.9005,7.0,25.2,11111222
Shell,ioos:station:wmo:42873:1,2023-01-02T09:26:00Z,26.0930,-94.9003,7.0,25.2,11111222
Shell,ioos:station:wmo:42873:1,2023-01-02T09:36:00Z,26.0930,-94.9004,6.9,25.2,11111222
Shell,ioos:station:wmo:42873:1,2023-01-02T09:46:00Z,26.0933,-94.9001,7.0,25.2,11111222
Shell,ioos:station:wmo:42873:1,2023-01-02T09:56:00Z,26.0932,-94.9001,7.1,25.2,11111222
Shell,ioos:station:wmo:42873:1,2023-01-02T10:06:00Z,26.0931,-94.9003,7.1,25.2,11111222
Shell,ioos:station:wmo:42873:1,2023-01-02T10:16:00Z,26.0931,-94.9003,7.1,25.2,11111222
Shell,ioos:station:wmo:42873:1,2023-01-02T10:26:00Z,26.0930,-94.9004,7.1,25.2,11111222
Shell,ioos:station:wmo:42873:1,2023-01-02T10:36:00Z,26.0930,-94.9001,7.1,25.2,11111222
Shell,ioos:station:wmo:42873:1,2023-01-02T10:46:00Z,26.0930,-94.9003,7.1,25.2,11111222
Shell,ioos:station:wmo:42873:1,2023-01-02T10:56:00Z,26.0931,-94.9004,7.1,25.2,11111222
Shell,ioos:station:wmo:42873:1,2023-01-02T11:06:00Z,26.0930,-94.9007,7.1,25.2,11111222
Shell,ioos:station:wmo:42873:1,2023-01-02T11:16:00Z,26.0930,-94.9000,7.1,25.2,11111222
Shell,ioos:station:wmo:42873:1,2023-01-02T11:26:00Z,26.0931,-94.9005,7.1,25.2,11111222
Shell,ioos:station:wmo:42873:1,2023-01-02T11:37:00Z,26.0930,-94.9008,7.1,25.2,11111222
Shell,ioos:station:wmo:42873:1,2023-01-02T11:47:00Z,26.0931,-94.9004,7.1,25.2,11111222
Shell,ioos:station:wmo:42873:1,2023-01-02T11:57:00Z,26.0931,-94.9005,7.1,25.2,11111222
Shell,ioos:station:wmo:42873:1,2023-01-02T12:07:00Z,26.0930,-94.9003,7.1,25.2,11111222
Shell,ioos:station:wmo:42873:1,2023-01-02T12:17:00Z,26.0930,-94.9003,7.1,25.2,11111222
Shell,ioos:station:wmo:42873:1,2023-01-02T12:27:00Z,26.0928,-94.9004,7.1,25.2,11111222
Shell,ioos:station:wmo:42873:1,2023-01-02T12:37:00Z,26.0930,-94.9005,7.0,25.2,11111222
Shell,ioos:station:wmo:42873:1,2023-01-02T12:47:00Z,26.0930,-94.9003,7.0,25.2,11111222
Shell,ioos:station:wmo:42873:1,2023-01-02T12:57:00Z,26.0930,-94.9003,7.1,25.2,11111222
Shell,ioos:station:wmo:42873:1,2023-01-02T13:07:00Z,26.0930,-94.9003,7.0,25.2,11111222
Shell,ioos:station:wmo:42873:1,2023-01-02T13:17:00Z,26.0929,-94.9003,7.0,25.2,11111222
Shell,ioos:station:wmo:42873:1,2023-01-02T13:27:00Z,26.0930,-94.9002,7.0,25.2,11111222
Shell,ioos:station:wmo:42873:1,2023-01-02T13:37:00Z,26.0929,-94.9003,7.0,25.2,11111222
Shell,ioos:station:wmo:42873:1,2023-01-02T13:47:00Z,26.0927,-94.9007,7.0,25.2,11111222
Shell,ioos:station:wmo:42873:1,2023-01-02T13:57:00Z,26.0927,-94.9006,6.9,25.2,11111222
Shell,ioos:station:wmo:42873:1,2023-01-02T14:07:00Z,26.0930,-94.9003,7.0,25.2,11111222
Shell,ioos:station:wmo:42873:1,2023-01-02T14:17:00Z,26.0926,-94.9003,7.1,25.2,11111222
Shell,ioos:station:wmo:42873:1,2023-01-02T14:27:00Z,26.0930,-94.9001,7.1,25.2,11111222
Shell,ioos:station:wmo:42873:1,2023-01-02T14:37:00Z,26.0929,-94.9003,7.2,25.2,11111222
Shell,ioos:station:wmo:42873:1,2023-01-02T14:47:00Z,26.0929,-94.9002,7.2,25.2,11111222
Shell,ioos:station:wmo:42873:1,2023-01-02T14:57:00Z,26.0930,-94.9005,7.2,25.2,11111222
Shell,ioos:station:wmo:42873:1,2023-01-02T15:07:00Z,26.0929,-94.9003,7.3,25.2,11111222
Shell,ioos:station:wmo:42873:1,2023-01-02T15:17:00Z,26.0930,-94.9003,7.3,25.2,11111222
Shell,ioos:station:wmo:42873:1,2023-01-02T15:27:00Z,26.0929,-94.9005,7.3,25.2,11111222
Shell,ioos:station:wmo:42873:1,2023-01-02T15:37:00Z,26.0930,-94.9003,7.3,25.2,11111222
Shell,ioos:station:wmo:42873:1,2023-01-02T15:47:00Z,26.0930,-94.9002,7.4,25.3,11111222
Shell,ioos:station:wmo:42873:1,2023-01-02T15:57:00Z,26.0931,-94.9001,7.4,25.3,11111222
Shell,ioos:station:wmo:42873:1,2023-01-02T16:07:00Z,26.0929,-94.9005,7.4,25.3,11111222
Shell,ioos:station:wmo:42873:1,2023-01-02T16:17:00Z,26.0929,-94.9004,7.2,25.3,11111222
Shell,ioos:station:wmo:42873:1,2023-01-02T16:27:00Z,26.0930,-94.9001,7.2,25.2,11111222
Shell,ioos:station:wmo:42873:1,2023-01-02T16:37:00Z,26.0930,-94.9000,7.2,25.2,11111222
Shell,ioos:station:wmo:42873:1,2023-01-02T16:47:00Z,26.0930,-94.9000,7.2,25.2,11111222
Shell,ioos:station:wmo:42873:1,2023-01-02T16:57:00Z,26.0930,-94.9001,7.2,25.2,11111222
Shell,ioos:station:wmo:42873:1,2023-01-02T17:07:00Z,26.0929,-94.9003,7.2,25.2,11111222
Shell,ioos:station:wmo:42873:1,2023-01-02T17:17:00Z,26.0930,-94.9002,7.1,25.2,11111222
Shell,ioos:station:wmo:42873:1,2023-01-02T17:27:00Z,26.0930,-94.9001,7.1,25.2,11111222
Shell,ioos:station:wmo:42873:1,2023-01-02T17:37:00Z,26.0930,-94.9003,7.2,25.2,11111222
Shell,ioos:station:wmo:42873:1,2023-01-02T17:47:00Z,26.0928,-94.9007,7.3,25.2,11111222
Shell,ioos:station:wmo:42873:1,2023-01-02T17:57:00Z,26.0929,-94.9004,7.3,25.2,11111222
Shell,ioos:station:wmo:42873:1,2023-01-02T18:07:00Z,26.0931,-94.8999,7.3,25.2,11111222
Shell,ioos:station:wmo:42873:1,2023-01-02T18:17:00Z,26.0930,-94.9003,7.3,25.2,11111222
Shell,ioos:station:wmo:42873:1,2023-01-02T18:27:00Z,26.0929,-94.8996,7.3,25.2,11111222
Shell,ioos:station:wmo:42873:1,2023-01-02T18:37:00Z,26.0928,-94.8978,7.2,25.2,11111222
Shell,ioos:station:wmo:42873:1,2023-01-02T18:47:00Z,26.0930,-94.9005,7.2,25.3,11111222
Shell,ioos:station:wmo:42873:1,2023-01-02T18:58:00Z,26.0930,-94.9005,7.2,25.3,11111222
Shell,ioos:station:wmo:42873:1,2023-01-02T19:08:00Z,26.0924,-94.9029,7.2,25.3,11111222
Shell,ioos:station:wmo:42873:1,2023-01-02T19:18:00Z,26.0931,-94.9001,7.2,25.3,11111222
Shell,ioos:station:wmo:42873:1,2023-01-02T19:28:00Z,26.0929,-94.9005,7.2,25.3,11111222
Shell,ioos:station:wmo:42873:1,2023-01-02T19:38:00Z,26.0930,-94.9005,7.2,25.3,11111222
Shell,ioos:station:wmo:42873:1,2023-01-02T19:48:00Z,26.0930,-94.9003,7.3,25.3,11111222
Shell,ioos:station:wmo:42873:1,2023-01-02T19:58:00Z,26.0931,-94.9003,7.3,25.3,11111222
Shell,ioos:station:wmo:42873:1,2023-01-02T20:08:00Z,26.0927,-94.9008,7.3,25.3,11111222
Shell,ioos:station:wmo:42873:1,2023-01-02T20:18:00Z,26.0930,-94.9004,7.3,25.3,11111222
Shell,ioos:station:wmo:42873:1,2023-01-02T20:28:00Z,26.0930,-94.9004,7.3,25.3,11111222
Shell,ioos:station:wmo:42873:1,2023-01-02T20:38:00Z,26.0931,-94.9003,7.3,25.3,11111222
Shell,ioos:station:wmo:42873:1,2023-01-02T20:48:00Z,26.0930,-94.9004,7.2,25.3,11111222
Shell,ioos:station:wmo:42873:1,2023-01-02T20:58:00Z,26.0933,-94.9013,7.3,25.3,11111222
Shell,ioos:station:wmo:42873:1,2023-01-02T21:08:00Z,26.0930,-94.9006,7.3,25.3,11111222